RS-30
1 32953U 08025A 14324.69640643 .00000010 00000-0 -13620-7 0 4838
2 32953 082.5028 103.9010 0019189 173.2920 186.8430 12.43052818294701
METEOR-M
1 35865U 09049A 14324.72111962 .00000200 00000-0 10991-3 0 921
2 35865 098.5304 007.2298 0002945 018.4228 341.7050 14.21953574268581
RS-38
1 35869U 09049E 14324.72466168 .00000144 00000-0 83962-4 0 9965
2 35869 098.5218 006.9609 0005025 009.0130 351.1151 14.22245086268626
JUGNU
1 37839U 11058B 14323.47575390 .00000579 00000-0 16725-3 0 7362
2 37839 019.9630 033.7388 0018905 256.4243 221.8849 14.12374090160531
SRMSAT
1 37841U 11058D 14324.31220288 .00000512 00000-0 13724-3 0 7400
2 37841 019.9734 051.1298 0011595 198.6725 210.9839 14.10403691160427
RAX-2
1 37853U 11061D 14324.84282300 .00010912 00000-0 71579-3 0 9676
2 37853 101.7035 069.3851 0209330 322.8209 148.8073 14.91757049165998
AUBIESAT
1 37854U 11061E 14324.88189703 .00011732 00000-0 74258-3 0 9649
2 37854 101.7088 071.8933 0206230 319.0025 158.2980 14.93354521166078
HRBE
1 37855U 11061F 14324.86041049 .00010746 00000-0 69092-3 0 9855
2 37855 101.7086 070.9614 0208864 320.8563 037.7689 14.92507537166023
RS-39
1 38051U 11062C 14288.65876392 .70201582 12497-4 27925-2 0 413
2 38051 051.5964 324.1908 0006422 269.6897 186.8903 16.43533377153081
E-STAR
1 38079U 12006C 14324.54771658 .00249603 19426-4 15653-2 0 716
2 38079 069.4333 289.9060 0212294 124.1260 238.0254 15.51586698147287
GOLIAT
1 38085U 12006J 14324.72943157 .00196046 12530-4 14888-2 0 5544
2 38085 069.4358 301.2786 0252354 129.7504 290.2035 15.40349966147007
HORYU-2
1 38340U 12025D 14323.87420259 .00004794 00000-0 75016-3 0 232
2 38340 098.2850 283.9271 0013399 046.8693 313.3633 14.73183764134706
RS-40
1 38735U 12041C 14324.73167149 .00000040 00000-0 21992-3 0 7859
2 38735 082.4778 189.9414 0016329 275.8204 084.1015 12.42563673105025
PROITERES
1 38756U 12047B 14324.75057274 .00001891 00000-0 28686-3 0 4238
2 38756 098.2229 055.6020 0011071 242.4022 117.6068 14.75288798118263
BEESAT-3
1 39134U 13015E 14323.49027819 .00016125 00000-0 10473-2 0 7713
2 39134 064.8758 006.3184 0036321 283.2411 076.4660 15.07647016 87043
BEESAT-2
1 39136U 13015G 14324.55844571 .00013081 00000-0 87312-3 0 7530
2 39136 064.8757 003.9652 0036568 282.9469 076.7569 15.06745209 87187
LO-75
1 39382U 13064C 14295.69194059 .07301741 00000-0 36367-2 0 4875
2 39382 040.4713 030.2705 0002289 341.7175 018.4586 16.19795749470823
ZACUBE-1
1 39417U 13066B 14324.72614900 .00003662 00000-0 48927-3 0 4695
2 39417 097.7597 029.8772 0063003 095.1400 265.7006 14.78731742 53824
TRITON-1
1 39427U 13066M 14324.73820521 .00002540 00000-0 42676-3 0 3200
2 39427 097.7463 022.5050 0118598 112.0028 249.3827 14.65890005 53329
DELFIN3XT
1 39428U 13066N 14324.73586064 .00005053 00000-0 86063-3 0 3246
2 39428 097.7462 021.2704 0128298 115.3639 246.0913 14.64113787 53237
GOMX-1
1 39430U 13066Q 14324.74844447 .00002953 00000-0 55977-3 0 9996
2 39430 097.7368 017.6610 0156899 125.6483 235.9415 14.57315201 53016
MO-76
1 39436U 13066W 14323.76559411 .00035209 00000-0 31789-2 0 4109
2 39436 097.7677 035.2820 0024366 093.6557 266.7451 14.95167853 54072
LO-74
1 39440U 13066AA 14323.79906578 .00003133 00000-0 46120-3 0 3169
2 39440 097.7555 026.0658 0084840 103.8574 257.2092 14.73624620 53492
PUCPSAT-1
1 39442U 13066AC 14323.80307355 .00006825 00000-0 75873-3 0 3158
2 39442 097.7662 033.5563 0035465 093.9900 266.5372 14.87019785 52737
SHINAISAT
1 39572U 14009A 14324.81721274 .02345646 72532-5 11129-2 0 4294
2 39572 064.9859 209.5809 0012303 257.0557 102.9247 16.20910251 41863
TEIKYOSAT
1 39576U 14009E 14297.85867254 .09345816 76764-5 25176-3 0 4374
2 39576 064.9818 300.5833 0008491 317.3597 044.3862 16.45008906 37698
CO-77
1 39577U 14009F 14244.78324653 .10543803 76292-5 32273-3 0 3795
2 39577 064.9920 123.7668 0014904 269.7208 091.1897 16.43552757 29380
SPROUT
1 39770U 14029E 14324.01910950 .00002630 00000-0 32948-3 0 1971
2 39770 097.8722 058.8218 0010626 157.3111 202.8569 14.83050972 26626
POPSAT-HIP1
1 40028U 14033U 14324.84813919 .00004617 00000-0 53662-3 0 4732
2 40028 097.9691 219.7694 0015375 137.8783 222.3627 14.85753398 22835
EO-80
1 40032U 14033Y 14324.67017225 .00004202 00000-0 49227-3 0 4590
2 40032 097.9644 219.4615 0013252 133.3666 226.8696 14.85500904 22817
VELOX-1
1 40057U 14034E 14324.77883388 .00004394 00000-0 66622-3 0 4602
2 40057 098.2374 034.4200 0011801 178.4471 181.6781 14.74604676 21153
DAURIA DX 1
1 40071U 14037C 14324.77799886 .00002053 00000-0 28017-3 0 4336
2 40071 098.3850 022.3991 0008466 179.4070 180.7139 14.79805176 19967
UKUBE-1
1 40074U 14037F 14324.75745962 .00004246 00000-0 55564-3 0 4347
2 40074 098.3857 022.6048 0004562 182.5039 177.6148 14.80975403 19975
CHASQUI-1
1 40117U 98067ET 14324.48490703 .00183063 00000-0 16317-2 0 2929
2 40117 051.6417 040.4295 0007759 348.7815 104.5472 15.67304315 14606
HODOYOSHI-1
1 40299U 14070B 14324.82867557 .00008816 00000-0 44710-3 0 463
2 40299 097.4745 044.0745 0015121 135.0830 342.7319 15.17076075 2196
CHUBUSAT-1
1 40300U 14070C 14324.78259531 .00009555 00000-0 51206-3 0 467
2 40300 097.4720 043.9782 0024702 135.7970 338.8614 15.14938082 2183
QSAT-EOS
1 40301U 14070D 14324.80781595 .00008071 00000-0 46205-3 0 488
2 40301 097.4693 043.9420 0036224 135.0561 342.2891 15.12326151 2196
TSUBAME
1 40302U 14070E 14324.89935826 .00012251 00000-0 73613-3 0 462
2 40302 097.4669 043.9761 0047149 135.8201 358.5500 15.10075706 2197
